Погода Усановы

Погода Усановы : погода сейчас, прогноз погоды и архив. Всё, что Вы хотите узнать о погоде Усановы!

Поиск расширенной информации на нашем сайте:

Другие новости

Новости СМИ2

Главная страница сайта

Новости сайта

02.10.2013

Напоминаем, что на нашем новом сайте вы можете получить высокодетализированные прогнозы погоды по пунктам России, СНГ и мира (включающие важные для авиации метеовеличины, такие как направление и скорость ветра, видимость, явления погоды, количество и форма облачности, нижняя и верхняя граница облачности), а также ознакомиться с разнообразными материалами по авиационной метеорологии и подборкой полезных ссылок на эту тему.

Сайт Метеоцентр.Азия посвящён разработке технологий оптимизации авиаметеорологического обслуживания, включая проектирование и перспективное создание нескольких автоматизированных авиаметеорологических систем:
- система выпуска высокодетальных прогностических карт явлений погоды для нижнего воздушного пространства по России и ближнему зарубежью;
- система верификации прогнозов TAF (выпускаемых синоптиками официальных АМСГ РФ и ближнего зарубежья) и AUTOTAF (выпускаемых сайтом Метеоцентр.Азия) - выявление ошибок, онлайн-сопоставление с фактической погодой METAR, автоматическое внесение коррективов в прогнозы при резком отклонении фактической погоды от прогноза, подсчёт оправдываемости прогнозов по элементам и в целом;
- система обработки, анализа и отображения авиаметеорологической информации для применения провайдерами метеорологической информации.

Рекомендуем: Генераторы бензиновые купить генераторы.

Погода Усановы - сегодня

Время (UTC), дата Ветер
(°,м/с) 
Видим.   Явления Облачность Т
(°С)
Тd
(°С)
f(%) Тe
(°С)
Pmin
(гПа)
dP
(гПа)
Po
(мм)
O2
(г/м3)
Тmin Tmax R s Состояние
почвы
18 20.04.17 тихо ()   10 км    6/6 600 м 
[Sc]
-3.2 -5.9 82 -3  1024.8  0.2  763  312           
21 20.04.17 тихо ()   10 км    9/9 600 м 
[Sc]
-3.2 -5.2 86 -3  1025  0.1  763  312           
00 21.04.17 110 (В) 10 км    10/10 600 м 
[Sc]
-1 -5.4 72 1023.8  -1.1  762  309           
03 21.04.17 130 (ЮВ) 10 км    9/9 600 м 
[Sc]
+2.4 -5.8 55 +2  1021.8  -1.9  761  304  -4.7      16  равномерный
мокрый или
старый снег
100% 
06 21.04.17 130 (ЮВ) 10 км    9/9 600 м 
[Sc]
+4.4 -5.8 47 +3  1018.8  -2.9  758  301           
09 21.04.17 140 (ЮВ) 4-11{11}  10 км    9/3 600 м средняя 
[Sc diur, vesp|Ac trans]
+7.9 -5.6 38 +7  1014.8  -3.8  755  296           
12 21.04.17 140 (ЮВ) 3{11}  10 км    10/4 600 м средняя, верхняя 
[Cu med, cong|Ac trans|Ci fib]
+8.5 -2.9 44 +8  1011.2  -3.8  753  295           
15 21.04.17 140 (ЮВ) 10 км    10/0 средняя 
[Ac As]
+5.9 -1.3 60 +6  1008.8  -2.4  751  296    +8.6       
18 21.04.17 150 (ЮВ) 10 км    6/0 средняя 
[Ac trans]
+6.8 -0.6 59 +7  1006.2  -2.6  749  295           
21 21.04.17 170 (Ю) 10 км    8/8 300 м кучево-дожд. 
[Cb cap]
+7.8 +0.2 59 +7  1005.4  -0.8  749  293           
00 22.04.17 160 (Ю) 10 км    8/8 300 м кучево-дожд. 
[Cb cap]
+5.6 +0.6 70 +6  1004.3  -1.1  748  295           
03 22.04.17 180 (Ю) 10 км    9/9 300 м кучево-дожд. 
[Cb cap]
+8.2 -0.3 55 +8  1004.1  -0.2  748  292  +5.3      15  равномерный
мокрый или
старый снег
100% 
06 22.04.17 300 (СЗ) 10 км    10/10 300 м кучево-дожд. 
[Cb cap]
+2.6 -0.2 82 +2  1005.8  1.5  749  299  +2.6         
09 22.04.17 300 (СЗ) 2000 м  ливневой снег  10/10 300 м кучево-дожд. 
[Cb cap]
+0.6 +0.2 97 +1  1008.6  2.7  751  302           
12 22.04.17 270 (З) 10 км  {ливн. осадки}  8/8 300 м кучево-дожд. 
[Cb cap]
+3.1 +0.1 81 +4  1009.9  1.3  752  299           
15 22.04.17 260 (З) 10 км    10/10 300 м кучево-дожд. 
[Cb cap]
+0.7 -0.4 92 +1  1012.7  2.8  754  303    +9.6     
18 22.04.17 тихо ()   10 км    ясно 
-2.6 -2.8 99 -3  1014.9  755  308           
21 22.04.17 тихо ()   10 км    ясно 
-4.8 -5.1 98 -5  1016.5  1.5  756  311           
00 23.04.17 тихо ()   10 км    6/3 600 м верхняя 
[Sc|Ci fib]
-6.1 -6.6 96 -6  1018  1.4  758  313           
03 23.04.17 140 (ЮВ) 10 км    8/8 600 м 
[Sc]
+1.4 -0.9 85 +2  1018.8  758  304  -6.5      20  равномерный
сухой снег
100% 
06 23.04.17 170 (Ю) 10 км    9/9 300 м кучево-дожд. 
[Cb cap]
+5.9 -3.6 50 +6  1018.4  -0.3  758  299           
09 23.04.17 140 (ЮВ) 10 км    9/9 300 м кучево-дожд. 
[Cb cap]
+8.2 -3.8 42 +8  1016.8  -1.5  757  297           
12 23.04.17 140 (ЮВ) 10 км    8/3 300 м кучево-дожд., верхняя 
[Cb cap|Ci fib]
+9.4 -6.2 33 +9  1015.1  -1.7  756  295           
15 23.04.17 090 (В) 10 км    8/8 600 м 
[Sc]
+5.2 -5.2 47 +6  1014.1  -1.2  755  299    +9.9       
18 23.04.17 090 (В) 10 км    8/8 600 м 
[Sc]
+2.9 -5.4 54 +4  1012.6  -1.5  754  301           
Время (UTC), дата Ветер
(°,м/с) 
Видим.   Явления Облачность Т
(°С)
Тd
(°С)
f(%) Тe
(°С)
Pmin
(гПа)
dP
(гПа)
Po
(мм)
O2
(г/м3)
Тmin Tmax R s Состояние
почвы

Для получения пояснительной информации подведите курсор к названию столбца.

ПОГОДА Усановы - архив

Всё, что Вы хотите узнать о погоде Усановы - удобно и подробно!

Выберите нужную дату (начиная с 1 января 2015* года) и нажмите кнопку "Найти".
Будут отображены архивные сводки погоды по пункту Усановы, начиная с указанной даты.


Отображать данные в формате CSV (для использования в таблицах Excel)


Внимание! Наш архив погоды предназначен исключительно для личного некоммерческого использования в познавательных целях. Если Вам необходимы официальные справки о состоянии погоды (для производственных, юридических, коммерческих и т.п. целей), обращайтесь в органы Росгидромета.

*Примечание: данная дата относится к архиву по метеостанциям СССР (Россия, СНГ, Балтия).
Архив по метеостанциям Зарубежной Европы и Азии (кроме Китая) хранится 10 дней, по другим регионам земного шара (Китай, Африка, Америка, Австралия, Океания) - 1 день.

Усановы - район местоположения метеостанции


Название, широта, долгота, высота метеостанции:
Усановы 59.5°ш. 73.4°д. 82 м над ур. моря [Российская Федерация]

Дополнительная информация

В oтличие oт бoльшинства пoгoдных сайтoв мы публикуем пoдрoбную метеoинфoрмацию в детальнoм прoфессиoнальнoм фoрмате.

Характеристики температуры и влажнoсти вoздуха измеряются на высoте 2 м в тени вдали oт зданий и деревьев.
Скoрoсть ветра измеряется на высoте 10 м (на урoвне рoста челoвека скoрoсть ветра ниже в 1.5-2 раза). Если метеoстанция нахoдится в гoрoде или в лесу, тo скoрoсть ветра занижена на 2-4 м/с пo сравнению с oткрытым местoм. Скoрoсть ветра над акватoриями крупных рек и oзёр, а также на вершинах хoлмoв на 2-5 м/с выше, чем в oбычных услoвиях.
Атмoсфернoе давление в разных тoчках местнoсти мoжет значительнo oтличаться oт давления на метеoстанции, в зависимoсти oт услoвий рельефа (при пoдъёме на 10 м давление пoнижается примернo на 1 мм рт.ст.).